Home   Weather   Budapest   Past weeks

Flag for Hungary Past Weather in Budapest, Hungary — Yesterday and Last 2 Weeks

Now
27 °F

Clear.


Feels Like: 17 °F
Forecast: 15 / 29 °F
Wind: 9 mph from North

Location: Ferenc Liszt International Airport

Current Time: Jan 17, 2017 at 4:04:50 am

Latest Report: Jan 17, 2017 at 3:30 am


Visibility: 10 mi

Pressure: 30.18 "Hg

Humidity: 69%

Dew Point: 18 °F

Location of BudapestLocation

Past Weather in Budapest — Graph

°F

Budapest Temperature Yesterday

Maximum temperature yesterday: 27 °F (at 1:30 pm)
Minimum temperature yesterday: 12 °F (at 4:00 am)
Average temperature yesterday: 20 °F

High & Low Weather Summary for the Past Weeks

 TemperatureHumidityPressure
High39 °F (Jan 14, 2:30 pm)100% (Jan 2, 3:30 am)30.45 "Hg (Jan 2, 3:30 am)
Low-8 °F (Jan 8, 4:00 am)32% (Jan 8, 2:00 pm)29.42 "Hg (Jan 14, 2:00 am)
Average22 °F76%30.06 "Hg
* Reported Jan 2 3:00 am — Jan 17 3:00 am, Budapest, Weather by CustomWeather, © 2017

Note: Actual official high and low records may vary slightly from our data, if they occured in-between our weather recording intervals... More about our weather records

Advertising

Budapest Weather History for the Previous 24 Hours

Scroll right to see more
 ConditionsComfort  
Time TempWeatherWind HumidityBarometerVisibility
3:00 am
Tue, Jan 17
27 °FClear.13 mph69%30.18 "Hg10 mi
2:30 am27 °FClear.12 mph69%30.21 "Hg10 mi
2:00 am27 °FClear.10 mph69%30.21 "Hg5 mi
1:30 am27 °FClear.12 mph74%30.21 "Hg5 mi
1:00 am27 °FClear.8 mph74%30.21 "Hg5 mi
12:30 am27 °FClear.8 mph74%30.21 "Hg5 mi
12:00 am25 °FClear.9 mph80%30.21 "Hg5 mi
11:30 pm
Mon, Jan 16
25 °FClear.9 mph80%30.21 "Hg5 mi
11:00 pm23 °FClear.8 mph86%30.21 "Hg5 mi
10:30 pm21 °FClear.2 mph93%30.21 "Hg5 mi
10:00 pm23 °FClear.5 mph86%30.18 "Hg5 mi
9:30 pm23 °FClear.8 mph86%30.18 "Hg5 mi
9:00 pm23 °FClear.8 mph86%30.18 "Hg10 mi
8:30 pm23 °FClear.6 mph93%30.18 "Hg10 mi
8:00 pm25 °FPassing clouds.6 mph86%30.18 "HgN/A
7:30 pm25 °FClear.5 mph86%30.18 "Hg10 mi
7:00 pm25 °FPassing clouds.5 mph86%30.15 "HgN/A
6:30 pm25 °FClear.2 mph86%30.15 "Hg10 mi
6:00 pm25 °FClear.7 mph86%30.15 "Hg10 mi
5:30 pm25 °FClear.7 mph86%30.15 "Hg10 mi
5:00 pm25 °FClear.5 mph86%30.15 "Hg10 mi
4:30 pm25 °FClear.3 mph86%30.15 "Hg4 mi
4:00 pm25 °FSunny.5 mph86%30.15 "Hg10 mi
3:30 pm27 °FSunny.5 mph80%30.15 "Hg10 mi
3:00 pm27 °FSunny.6 mph80%30.15 "Hg10 mi
2:30 pm27 °FPassing clouds.5 mph80%30.15 "HgN/A
2:00 pm23 °FPassing clouds.7 mph86%30.15 "HgN/A
1:30 pm27 °FPassing clouds.5 mph80%30.15 "HgN/A
1:00 pm25 °FSunny.3 mph86%30.15 "Hg10 mi
12:30 pm25 °FSunny.1 mph86%30.15 "Hg10 mi
12:00 pm23 °FSunny.2 mph93%30.15 "Hg10 mi
11:30 am23 °FClear.1 mph86%30.15 "Hg4 mi
11:00 am21 °FClear.1 mph93%30.15 "Hg4 mi
10:30 am19 °FClear.3 mph93%30.18 "Hg4 mi
10:00 am18 °FIce fog.1 mph93%30.18 "Hg3 mi
9:30 am14 °FIce fog.1 mph92%30.18 "Hg3 mi
9:00 am14 °FIce fog.No wind92%30.18 "Hg2 mi
8:30 am12 °FIce fog.2 mph92%30.18 "Hg2 mi
8:00 am12 °FIce fog.1 mph92%30.15 "Hg2 mi
7:30 am12 °FIce fog.5 mph92%30.15 "Hg3 mi
7:00 am14 °FClear.5 mph100%30.15 "Hg4 mi
6:30 am16 °FClear.1 mph93%30.15 "Hg4 mi
6:00 am18 °FClear.6 mph93%30.12 "Hg4 mi
5:30 am14 °FIce fog.2 mph92%30.12 "Hg3 mi
5:00 am14 °FIce fog.No wind100%30.12 "Hg2 mi
4:32 am12 °FIce fog.2 mph92%30.12 "Hg1 mi
4:07 am12 °FIce fog.No wind92%30.15 "Hg2 mi
4:00 am12 °FIce fog.No wind92%30.15 "Hg2 mi
Weather by CustomWeather, © 2017

See weather overviewHow to use our weather pages